FW9226 Weather Reports


Display with metric or nautical units.
time (UTC)temp
F
wind
direction
speed
MPH
gust
MPH
rain 1hr
in
rain 24hr
in
rain mn
in
humidity
%
barometer
mb
20260503023505 61 136 0.0 0.0 0.00 0.00 0.00 65 1013.2
20260503023005 61 137 0.0 0.0 0.00 0.00 0.00 65 1013.1
20260503022505 62 137 0.0 0.0 0.00 0.00 0.00 63 1013.1
20260503021500 62 137 0.0 0.0 0.00 0.00 0.00 63 1013.2
20260503020505 63 137 0.0 0.0 0.00 0.00 0.00 63 1013.3
20260503020005 63 137 0.0 0.0 0.00 0.00 0.00 62 1013.3
20260503015500 63 137 0.0 1.0 0.00 0.00 0.00 61 1013.3
20260503015005 64 137 0.0 1.0 0.00 0.00 0.00 60 1013.3
20260503014506 64 137 0.0 0.0 0.00 0.00 0.00 58 1013.4
20260503014005 64 137 0.0 0.0 0.00 0.00 0.00 58 1013.4
20260503013501 64 137 0.0 0.0 0.00 0.00 0.00 58 1013.4
20260503013006 65 137 0.0 1.0 0.00 0.00 0.00 57 1013.4
20260503012505 65 137 0.0 1.0 0.00 0.00 0.00 58 1013.5
20260503011506 65 207 0.0 2.0 0.00 0.00 0.00 55 1013.4
20260503011005 65 19 0.0 2.0 0.00 0.00 0.00 55 1013.4
20260503010504 65 243 0.0 1.0 0.00 0.00 0.00 56 1013.5
20260503010005 65 144 0.0 2.0 0.00 0.00 0.00 55 1013.5
20260503005504 65 193 0.0 1.0 0.00 0.00 0.00 57 1013.5
20260503005005 65 195 1.0 5.0 0.00 0.00 0.00 57 1013.6
20260503004505 65 205 1.0 5.0 0.00 0.00 0.00 57 1013.5
20260503004005 65 133 1.0 4.0 0.00 0.00 0.00 58 1013.6
20260503003505 66 250 1.0 4.0 0.00 0.00 0.00 57 1013.6
20260503002505 67 252 1.0 5.0 0.00 0.00 0.00 55 1013.6
20260503002006 67 151 1.0 5.0 0.00 0.00 0.00 56 1013.6
20260503001505 67 199 1.0 4.0 0.00 0.00 0.00 57 1013.6
20260503000506 68 111 1.0 5.0 0.00 0.00 0.00 56 1013.7
20260503000004 68 188 0.0 2.0 0.00 0.00 0.00 57 1013.7
20260502235505 68 277 1.0 3.0 0.00 0.00 0.00 56 1013.8
20260502235005 68 240 1.0 3.0 0.00 0.00 0.00 57 1013.7
20260502233500 68 65 1.0 4.0 0.00 0.00 0.00 57 1013.8
20260502232504 68 101 1.0 4.0 0.00 0.00 0.00 58 1013.9
20260502232002 68 130 1.0 4.0 0.00 0.00 0.00 56 1013.9
20260502231500 69 137 1.0 4.0 0.00 0.00 0.00 56 1014.0
20260502231004 69 128 1.0 4.0 0.00 0.00 0.00 56 1013.9
20260502230007 70 301 1.0 4.0 0.00 0.00 0.00 56 1014.0
20260502225505 70 247 1.0 4.0 0.00 0.00 0.00 54 1014.0
20260502225005 70 247 2.0 7.0 0.00 0.00 0.00 53 1014.1
20260502224505 70 141 2.0 7.0 0.00 0.00 0.00 51 1014.2
20260502224004 71 122 1.0 6.0 0.00 0.00 0.00 50 1014.2
20260502223507 72 157 1.0 9.0 0.00 0.00 0.00 50 1014.2
20260502223001 72 293 2.0 9.0 0.00 0.00 0.00 49 1014.3
20260502222500 72 210 1.0 5.0 0.00 0.00 0.00 50 1014.3
20260502222005 72 75 1.0 7.0 0.00 0.00 0.00 51 1014.4
20260502221505 73 108 2.0 7.0 0.00 0.00 0.00 50 1014.5
20260502221000 73 262 2.0 7.0 0.00 0.00 0.00 51 1014.6
20260502220505 72 139 2.0 7.0 0.00 0.00 0.00 51 1014.7
20260502220012 73 205 2.0 6.0 0.00 0.00 0.00 50 1014.8
20260502215505 73 160 2.0 6.0 0.00 0.00 0.00 51 1014.9
20260502215006 72 120 2.0 8.0 0.00 0.00 0.00 50 1014.9
20260502214505 73 103 2.0 8.0 0.00 0.00 0.00 51 1015.0
20260502214006 73 135 2.0 6.0 0.00 0.00 0.00 50 1015.0
20260502213459 73 115 2.0 11.0 0.00 0.00 0.00 49 1015.1
20260502213006 73 227 2.0 11.0 0.00 0.00 0.00 48 1015.0
20260502212506 73 246 2.0 7.0 0.00 0.00 0.00 48 1015.1
20260502212005 74 266 1.0 5.0 0.00 0.00 0.00 49 1015.2
20260502211504 73 236 2.0 5.0 0.00 0.00 0.00 48 1015.1
20260502211004 73 75 2.0 6.0 0.00 0.00 0.00 50 1015.3
20260502210500 72 201 2.0 6.0 0.00 0.00 0.00 50 1015.3
20260502205505 72 197 1.0 5.0 0.00 0.00 0.00 49 1015.3
20260502205005 72 147 2.0 6.0 0.00 0.00 0.00 50 1015.4
20260502204505 72 161 2.0 6.0 0.00 0.00 0.00 51 1015.4
20260502204005 72 240 2.0 7.0 0.00 0.00 0.00 50 1015.4
20260502203507 72 119 2.0 7.0 0.00 0.00 0.00 50 1015.5
20260502203005 73 258 2.0 6.0 0.00 0.00 0.00 50 1015.5
20260502201509 74 239 1.0 6.0 0.00 0.00 0.00 45 1015.6
20260502201011 73 228 2.0 6.0 0.00 0.00 0.00 48 1015.6
20260502200505 72 46 2.0 7.0 0.00 0.00 0.00 49 1015.5
20260502200008 72 67 2.0 7.0 0.00 0.00 0.00 48 1015.4
20260502195506 73 233 2.0 6.0 0.00 0.00 0.00 46 1015.5
20260502195006 74 134 2.0 6.0 0.00 0.00 0.00 46 1015.5
20260502194506 73 211 2.0 7.0 0.00 0.00 0.00 48 1015.5
20260502193505 72 167 3.0 8.0 0.00 0.00 0.00 50 1015.4
20260502193005 72 132 3.0 8.0 0.00 0.00 0.00 47 1015.6
20260502192505 72 117 2.0 7.0 0.00 0.00 0.00 48 1015.5
20260502191505 73 156 1.0 6.0 0.00 0.00 0.00 47 1015.7
20260502191006 72 221 2.0 6.0 0.00 0.00 0.00 48 1015.7
20260502190504 72 212 2.0 6.0 0.00 0.00 0.00 49 1015.7
20260502190006 72 215 2.0 6.0 0.00 0.00 0.00 46 1015.6
20260502185005 72 212 3.0 8.0 0.00 0.00 0.00 46 1015.6
20260502184505 71 200 2.0 8.0 0.00 0.00 0.00 46 1015.6
20260502184008 72 183 1.0 6.0 0.00 0.00 0.00 48 1015.6
20260502183505 72 130 2.0 7.0 0.00 0.00 0.00 47 1015.6
20260502183007 71 222 2.0 8.0 0.00 0.00 0.00 46 1015.7
20260502182505 71 81 2.0 7.0 0.00 0.00 0.00 47 1015.7
20260502181006 71 217 2.0 7.0 0.00 0.00 0.00 48 1015.8
20260502180505 70 196 3.0 8.0 0.00 0.00 0.00 47 1015.8
20260502170505 70 145 2.0 9.0 0.00 0.00 0.00 47 1015.8
20260502164006 69 226 2.0 5.0 0.00 0.00 0.00 48 1015.6
20260502163004 68 195 2.0 6.0 0.00 0.00 0.00 50 1015.6
20260502162506 68 219 1.0 4.0 0.00 0.00 0.00 49 1015.7
20260502162007 68 195 1.0 3.0 0.00 0.00 0.00 50 1015.7
20260502161505 68 203 1.0 4.0 0.00 0.00 0.00 52 1015.7
20260502152006 63 72 0.0 1.0 0.00 0.00 0.00 59 1015.6
20260502151503 62 47 0.0 1.0 0.00 0.00 0.00 60 1015.6
20260502150504 62 47 0.0 1.0 0.00 0.00 0.00 61 1015.5
20260502130504 54 286 0.0 1.0 0.00 0.00 0.00 65 1014.8
20260502122505 54 285 0.0 1.0 0.00 0.00 0.00 69 1014.8
20260502122005 54 285 0.0 1.0 0.00 0.00 0.00 69 1014.8
20260502121506 54 286 0.0 1.0 0.00 0.00 0.00 70 1014.8
20260502121005 54 286 0.0 1.0 0.00 0.00 0.00 69 1014.9
20260502120504 54 286 0.0 1.0 0.00 0.00 0.00 69 1014.9
20260502115505 54 285 0.0 1.0 0.00 0.00 0.00 69 1015.0
20260502115005 54 259 0.0 1.0 0.00 0.00 0.00 69 1015.0
20260502114006 54 269 0.0 1.0 0.00 0.00 0.00 68 1015.0
20260502113006 54 269 0.0 1.0 0.00 0.00 0.00 69 1015.2
20260502112506 54 269 0.0 1.0 0.00 0.00 0.00 69 1015.1
20260502112000 54 267 0.0 1.0 0.00 0.00 0.00 69 1015.1
20260502111004 54 267 0.0 1.0 0.00 0.00 0.00 68 1015.2
20260502110008 54 255 0.0 1.0 0.00 0.00 0.00 68 1015.2
20260502104505 54 250 0.0 1.0 0.00 0.00 0.00 69 1015.2
20260502104005 54 250 0.0 1.0 0.00 0.00 0.00 69 1015.2
20260502103500 54 250 0.0 1.0 0.00 0.00 0.00 68 1015.1
20260502103005 54 250 0.0 1.0 0.00 0.00 0.00 68 1015.2
20260502101508 54 250 0.0 1.0 0.00 0.00 0.00 69 1015.2
20260502091505 54 250 0.0 0.0 0.00 0.00 0.00 70 1015.6
20260502091007 55 250 0.0 1.0 0.00 0.00 0.00 70 1015.6
20260502090505 55 250 0.0 1.0 0.00 0.00 0.00 71 1015.7
20260502071505 53 250 0.0 1.0 0.00 0.00 0.00 83 1016.3
20260502071005 53 250 0.0 0.0 0.00 0.00 0.00 84 1016.2
20260502070504 53 250 0.0 0.0 0.00 0.00 0.00 83 1016.2
20260502070006 53 250 0.0 0.0 0.00 0.00 0.00 84 1016.2
20260502065504 53 250 0.0 0.0 0.00 0.00 0.00 84 1016.2
20260502064459 54 250 0.0 1.0 0.00 0.00 0.00 86 1016.2
20260502064005 54 250 0.0 1.0 0.00 0.00 0.00 85 1016.1
20260502063505 55 250 0.0 1.0 0.00 0.00 0.00 84 1016.2
20260502063005 55 250 0.0 1.0 0.00 0.00 0.00 81 1016.2
20260502062505 55 250 0.0 1.0 0.00 0.00 0.00 84 1016.2
20260502062002 54 250 0.0 1.0 0.00 0.00 0.00 87 1016.2
20260502061504 54 250 0.0 0.0 0.00 0.00 0.00 88 1016.3
20260502060504 54 250 0.0 0.0 0.00 0.00 0.00 88 1016.4
20260502055505 54 250 0.0 0.0 0.00 0.00 0.00 88 1016.6
20260502055005 54 250 0.0 0.0 0.00 0.00 0.00 88 1016.6
20260502054506 54 250 0.0 0.0 0.00 0.00 0.00 87 1016.6
20260502054007 54 250 0.0 0.0 0.00 0.00 0.00 88 1016.7
20260502053006 54 250 0.0 0.0 0.00 0.00 0.00 88 1016.6
20260502052504 54 250 0.0 1.0 0.00 0.00 0.00 88 1016.7
20260502052005 54 250 0.0 1.0 0.00 0.00 0.00 87 1016.6
20260502051506 54 250 0.0 0.0 0.00 0.00 0.00 87 1016.7
20260502051008 54 250 0.0 0.0 0.00 0.00 0.00 86 1016.7
20260502050505 55 250 0.0 0.0 0.00 0.00 0.00 86 1016.7
20260502050010 54 250 0.0 0.0 0.00 0.00 0.00 86 1016.6
20260502045505 55 250 0.0 0.0 0.00 0.00 0.00 86 1016.7
20260502045006 55 250 0.0 0.0 0.00 0.00 0.00 85 1016.5
20260502044506 55 250 0.0 0.0 0.00 0.00 0.00 85 1016.6
20260502044006 55 250 0.0 0.0 0.00 0.00 0.00 85 1016.5
20260502043505 55 250 0.0 0.0 0.00 0.00 0.00 85 1016.6
20260502043006 56 250 0.0 0.0 0.00 0.00 0.00 84 1016.5
20260502042504 56 250 0.0 0.0 0.00 0.00 0.00 84 1016.5
20260502042005 56 250 0.0 0.0 0.00 0.00 0.00 84 1016.5
20260502041505 56 250 0.0 0.0 0.00 0.00 0.00 84 1016.5
20260502041008 56 250 0.0 0.0 0.00 0.00 0.00 84 1016.5
20260502040505 56 250 0.0 0.0 0.00 0.00 0.00 83 1016.5
20260502040007 56 250 0.0 0.0 0.00 0.00 0.00 82 1016.5
20260502035506 57 250 0.0 0.0 0.00 0.00 0.00 82 1016.5
20260502035006 57 250 0.0 0.0 0.00 0.00 0.00 81 1016.3
20260502034505 57 250 0.0 0.0 0.00 0.00 0.00 80 1016.3
20260502034005 58 250 0.0 0.0 0.00 0.00 0.00 80 1016.2
20260502033504 58 250 0.0 1.0 0.00 0.00 0.00 79 1016.2
20260502033007 58 250 0.0 1.0 0.00 0.00 0.00 78 1016.2
20260502032505 59 250 0.0 0.0 0.00 0.00 0.00 77 1016.0
20260502032004 59 250 0.0 0.0 0.00 0.00 0.00 77 1016.0
20260502031506 59 250 0.0 1.0 0.00 0.00 0.00 76 1015.9
20260502031006 60 250 0.0 1.0 0.00 0.00 0.00 76 1015.7
20260502030505 60 250 0.0 1.0 0.00 0.00 0.00 76 1015.7
20260502030007 60 127 0.0 0.0 0.00 0.00 0.00 75 1015.6
20260502025505 61 127 0.0 0.0 0.00 0.00 0.00 74 1015.6
20260502024504 62 127 0.0 0.0 0.00 0.00 0.00 72 1015.6
20260502024005 62 127 0.0 1.0 0.00 0.00 0.00 71 1015.4